This is the latest recevied weather packets stored in our database for station/object DM4XI-13. If no packets are shown the sender has not sent any weather packets the latest 10 day(s).
| Time | Temp. | Humidity | Pressure | Rain* | Wind** | Luminosity | Snow |
|---|---|---|---|---|---|---|---|
| 1777428122 | 6.67° C | 45% | 1019 hPa | 0 mm | 1.34 m/s, 26° | 0 W/m² | - |
| 1777428061 | 6.67° C | 45% | 1018.9 hPa | 0 mm | 1.34 m/s, 67° | 0 W/m² | - |
| 1777428000 | 7.22° C | 45% | 1018.7 hPa | 0 mm | 0.45 m/s, 45° | 0 W/m² | - |
| 1777427939 | 7.22° C | 45% | 1018.8 hPa | 0 mm | 0.89 m/s, 19° | 0 W/m² | - |
| 1777427878 | 6.67° C | 45% | 1018.9 hPa | 0 mm | 0.89 m/s, 354° | 0 W/m² | - |
| 1777427817 | 6.67° C | 45% | 1018.8 hPa | 0 mm | 0.89 m/s, 6° | 0 W/m² | - |
| 1777427756 | 6.67° C | 46% | 1019 hPa | 0 mm | 0.89 m/s, 14° | 0 W/m² | - |
| 1777427695 | 6.67° C | 45% | 1018.7 hPa | 0 mm | 1.79 m/s, 2° | 0 W/m² | - |
| 1777427634 | 6.67° C | 46% | 1018.8 hPa | 0 mm | 0.89 m/s, 331° | 0 W/m² | - |
| 1777427573 | 7.22° C | 46% | 1018.9 hPa | 0 mm | 0.45 m/s, 2° | 0 W/m² | - |
| 1777427512 | 7.22° C | 46% | 1019 hPa | 0 mm | 0.89 m/s, 16° | 0 W/m² | - |
| 1777427451 | 7.22° C | 46% | 1018.8 hPa | 0 mm | 0.89 m/s, 341° | 0 W/m² | - |
| 1777427390 | 7.22° C | 46% | 1018.9 hPa | 0 mm | 0 m/s | 0 W/m² | - |
| 1777427329 | 7.22° C | 46% | 1018.7 hPa | 0 mm | 1.79 m/s, 34° | 0 W/m² | - |
| 1777427268 | 7.22° C | 46% | 1019 hPa | 0 mm | 0.89 m/s, 26° | 0 W/m² | - |
| 1777427207 | 7.22° C | 45% | 1018.7 hPa | 0 mm | 1.34 m/s, 13° | 0 W/m² | - |
| 1777427146 | 7.22° C | 45% | 1018.8 hPa | 0 mm | 1.79 m/s, 5° | 0 W/m² | - |
| 1777427085 | 7.22° C | 45% | 1018.9 hPa | 0 mm | 1.34 m/s, 17° | 0 W/m² | - |
| 1777427023 | 7.22° C | 46% | 1018.7 hPa | 0 mm | 0.89 m/s, 28° | 0 W/m² | - |
| 1777426962 | 7.22° C | 46% | 1018.8 hPa | 0 mm | 0.89 m/s, 355° | 0 W/m² | - |
| 1777426902 | 7.22° C | 46% | 1018.7 hPa | 0 mm | 1.34 m/s, 20° | 0 W/m² | - |
| 1777426841 | 7.22° C | 46% | 1018.8 hPa | 0 mm | 0.89 m/s, 16° | 0 W/m² | - |
| 1777426780 | 7.22° C | 47% | 1018.8 hPa | 0 mm | 0.89 m/s, 338° | 0 W/m² | - |
| 1777426719 | 7.22° C | 46% | 1018.8 hPa | 0 mm | 0.89 m/s, 22° | 0 W/m² | - |
| 1777426657 | 7.22° C | 46% | 1018.8 hPa | 0 mm | 0.89 m/s, 13° | 0 W/m² | - |
* Rain latest hour (hover to see other rain measurements)
** Current wind speed in m/s (hover to see current wind gust speed)